Location: Newark
(3.0500°N, 36.0167°E)
Time: 22:47:09
(UTC+00:00)

Transit 2A Rocket - Pass Details

Date: 23 August 2019
Orbit: 592 x 911 km, 66.7° (Epoch: 22 September)

Event Time Altitude Azimuth Distance (km) Brightness Sun altitude
Rises 15:20:01 0° 208° (SSW) 3,533 8.7 5.2°
Reaches altitude 10° 15:22:35 10° 211° (SSW) 2,593 8.0 4.5°
Maximum altitude 15:28:33 59° 289° (WNW) 1,030 6.3 3.1°
Drops below altitude 10° 15:34:19 10° 8° (N) 2,503 7.7 1.7°
Sets 15:36:46 0° 12° (NNE) 3,402 8.3 1.1°
